When you browse on this site, cookies collect data to enhance your experience and personalize the content and advertising you see.
Visit our Privacy Policy to learn more. By continuing to use the site, you agree to this use of cookies and data.
  • En España
  • Lista de países
  • Para 7 días
  • Temperatura del agua
  • El tiempo en el mapa
  • Informadores
  • user-avatar
    Iniciar sesión

    Tiempo cada hora Volokovaya

    Hoy, 5 Junio, Viernes

    Tiempo Temperatura Precipitaciones Viento Presión Humedad
    00:00 +8°C° 0 mm 2 mps 736 mmHg 94%
    01:00 +8°C° 0 mm 2 mps 736 mmHg 95%
    02:00 +7°C° 0 mm 3 mps 736 mmHg 96%
    03:00 +8°C° 0 mm 3 mps 736 mmHg 96%
    04:00 +8°C° 0 mm 2 mps 736 mmHg 95%
    05:00 +8°C° 0 mm 2 mps 736 mmHg 95%
    06:00 +9°C° 0 mm 3 mps 736 mmHg 91%
    07:00 +11°C° 0 mm 3 mps 736 mmHg 87%
    08:00 +12°C° 0 mm 3 mps 737 mmHg 83%
    09:00 +13°C° 0.3 mm 3 mps 737 mmHg 79%
    10:00 +16°C° 0.3 mm 3 mps 737 mmHg 75%
    11:00 +17°C° 0.3 mm 3 mps 737 mmHg 71%
    12:00 +17°C° 0.1 mm 3 mps 737 mmHg 69%
    13:00 +18°C° 0.1 mm 3 mps 737 mmHg 66%
    14:00 +18°C° 0.1 mm 3 mps 737 mmHg 64%
    15:00 +18°C° 0 mm 2 mps 737 mmHg 65%
    16:00 +18°C° 0 mm 2 mps 737 mmHg 66%
    17:00 +18°C° 0 mm 2 mps 737 mmHg 67%
    18:00 +17°C° 0 mm 2 mps 737 mmHg 73%
    19:00 +15°C° 0 mm 2 mps 738 mmHg 79%
    20:00 +14°C° 0 mm 2 mps 738 mmHg 86%
    21:00 +13°C° 0 mm 2 mps 738 mmHg 88%
    22:00 +12°C° 0 mm 2 mps 738 mmHg 90%
    23:00 +10°C° 0 mm 3 mps 739 mmHg 93%

    Mañana, 6 Junio, Sábado

    Tiempo Temperatura Precipitaciones Viento Presión Humedad
    00:00 +11°C° 0 mm 3 mps 739 mmHg 93%
    01:00 +11°C° 0 mm 3 mps 739 mmHg 94%
    02:00 +11°C° 0 mm 3 mps 739 mmHg 95%
    03:00 +11°C° 0 mm 3 mps 739 mmHg 95%
    04:00 +12°C° 0 mm 3 mps 739 mmHg 96%
    05:00 +13°C° 0 mm 4 mps 739 mmHg 96%
    06:00 +15°C° 0 mm 4 mps 739 mmHg 92%
    07:00 +17°C° 0 mm 4 mps 739 mmHg 88%
    08:00 +19°C° 0 mm 5 mps 739 mmHg 84%
    09:00 +19°C° 0.2 mm 4 mps 739 mmHg 84%
    10:00 +20°C° 0.2 mm 4 mps 739 mmHg 84%
    11:00 +20°C° 0.2 mm 4 mps 740 mmHg 85%
    12:00 +21°C° 0.8 mm 4 mps 740 mmHg 85%
    13:00 +21°C° 0.8 mm 4 mps 740 mmHg 86%
    14:00 +21°C° 0.8 mm 4 mps 740 mmHg 86%
    15:00 +22°C° 0.7 mm 4 mps 740 mmHg 85%
    16:00 +22°C° 0.7 mm 4 mps 740 mmHg 84%
    17:00 +22°C° 0.7 mm 4 mps 740 mmHg 84%
    18:00 +21°C° 0.1 mm 3 mps 741 mmHg 86%
    19:00 +20°C° 0.1 mm 3 mps 741 mmHg 89%
    20:00 +18°C° 0.1 mm 2 mps 742 mmHg 92%
    21:00 +17°C° 0 mm 2 mps 742 mmHg 92%
    22:00 +16°C° 0 mm 2 mps 743 mmHg 93%
    23:00 +15°C° 0 mm 2 mps 743 mmHg 93%

    Pasado mañana, 7 Junio, Domingo

    Tiempo Temperatura Precipitaciones Viento Presión Humedad
    00:00 +15°C° 0 mm 2 mps 744 mmHg 93%
    01:00 +14°C° 0 mm 1 mps 744 mmHg 93%
    02:00 +13°C° 0 mm 1 mps 745 mmHg 93%
    03:00 +13°C° 0 mm 1 mps 745 mmHg 92%
    04:00 +14°C° 0 mm 1 mps 745 mmHg 92%
    05:00 +14°C° 0 mm 1 mps 745 mmHg 91%
    06:00 +16°C° 0 mm 1 mps 746 mmHg 85%
    07:00 +19°C° 0 mm 1 mps 746 mmHg 79%
    08:00 +21°C° 0 mm 1 mps 746 mmHg 73%
    09:00 +22°C° 0 mm 1 mps 746 mmHg 68%
    10:00 +23°C° 0 mm 2 mps 747 mmHg 63%
    11:00 +24°C° 0 mm 2 mps 747 mmHg 59%
    12:00 +25°C° 0 mm 2 mps 746 mmHg 59%
    13:00 +25°C° 0 mm 2 mps 746 mmHg 59%
    14:00 +26°C° 0 mm 2 mps 746 mmHg 59%
    15:00 +26°C° 0 mm 2 mps 746 mmHg 63%
    16:00 +26°C° 0 mm 2 mps 746 mmHg 67%
    17:00 +26°C° 0 mm 2 mps 745 mmHg 71%
    18:00 +24°C° 0 mm 2 mps 745 mmHg 76%
    19:00 +23°C° 0 mm 2 mps 745 mmHg 81%
    20:00 +20°C° 0 mm 2 mps 745 mmHg 86%
    21:00 +20°C° 0 mm 2 mps 745 mmHg 88%
    22:00 +19°C° 0 mm 2 mps 745 mmHg 90%
    23:00 +18°C° 0 mm 2 mps 746 mmHg 93%

    8 Junio, Lunes

    Tiempo Temperatura Precipitaciones Viento Presión Humedad
    00:00 +18°C° 0 mm 2 mps 746 mmHg 94%
    01:00 +18°C° 0 mm 2 mps 746 mmHg 94%
    02:00 +17°C° 0 mm 2 mps 746 mmHg 95%
    03:00 +18°C° 0 mm 2 mps 746 mmHg 95%
    04:00 +18°C° 0 mm 2 mps 746 mmHg 95%
    05:00 +18°C° 0 mm 2 mps 746 mmHg 94%
    06:00 +20°C° 0 mm 2 mps 746 mmHg 89%
    07:00 +21°C° 0 mm 2 mps 746 mmHg 85%
    08:00 +24°C° 0 mm 2 mps 746 mmHg 80%
    09:00 +25°C° 0.2 mm 2 mps 746 mmHg 78%
    10:00 +26°C° 0.2 mm 2 mps 746 mmHg 75%
    11:00 +26°C° 0.2 mm 2 mps 746 mmHg 73%
    12:00 +27°C° 1 mm 2 mps 746 mmHg 72%
    13:00 +27°C° 1 mm 1 mps 746 mmHg 72%
    14:00 +27°C° 1 mm 1 mps 746 mmHg 71%
    15:00 +27°C° 0.5 mm 1 mps 745 mmHg 72%
    16:00 +27°C° 0.5 mm 1 mps 745 mmHg 72%
    17:00 +27°C° 0.5 mm 1 mps 745 mmHg 72%
    18:00 +25°C° 0.2 mm 1 mps 745 mmHg 77%
    19:00 +24°C° 0.2 mm 1 mps 745 mmHg 82%
    20:00 +23°C° 0.2 mm 1 mps 745 mmHg 87%
    21:00 +22°C° 0 mm 1 mps 745 mmHg 89%
    22:00 +21°C° 0 mm 1 mps 745 mmHg 90%
    23:00 +20°C° 0 mm 1 mps 745 mmHg 92%

    9 Junio, Martes

    Tiempo Temperatura Precipitaciones Viento Presión Humedad
    00:00 +20°C° 0 mm 1 mps 745 mmHg 92%
    01:00 +20°C° 0 mm 1 mps 745 mmHg 92%
    02:00 +19°C° 0 mm 1 mps 745 mmHg 92%
    03:00 +20°C° 0 mm 1 mps 745 mmHg 92%
    04:00 +20°C° 0 mm 1 mps 746 mmHg 92%
    05:00 +20°C° 0 mm 1 mps 746 mmHg 92%
    06:00 +21°C° 0 mm 1 mps 746 mmHg 88%
    07:00 +23°C° 0 mm 1 mps 746 mmHg 84%
    08:00 +24°C° 0 mm 2 mps 746 mmHg 80%
    09:00 +25°C° 0 mm 2 mps 746 mmHg 77%
    10:00 +26°C° 0 mm 2 mps 746 mmHg 73%
    11:00 +27°C° 0 mm 2 mps 746 mmHg 70%
    12:00 +27°C° 0.6 mm 3 mps 746 mmHg 72%
    13:00 +27°C° 0.6 mm 3 mps 746 mmHg 74%
    14:00 +27°C° 0.6 mm 3 mps 746 mmHg 76%
    15:00 +26°C° 0.9 mm 3 mps 746 mmHg 79%
    16:00 +26°C° 0.9 mm 3 mps 746 mmHg 82%
    17:00 +25°C° 0.9 mm 3 mps 746 mmHg 85%
    18:00 +24°C° 0.1 mm 3 mps 746 mmHg 87%
    19:00 +22°C° 0.1 mm 3 mps 746 mmHg 89%
    20:00 +21°C° 0.1 mm 2 mps 746 mmHg 91%
    21:00 +21°C° 0 mm 3 mps 746 mmHg 92%
    22:00 +20°C° 0 mm 3 mps 746 mmHg 93%
    23:00 +19°C° 0 mm 3 mps 746 mmHg 94%

    10 Junio, Miércoles

    Tiempo Temperatura Precipitaciones Viento Presión Humedad
    00:00 +18°C° 0 mm 3 mps 746 mmHg 95%
    01:00 +18°C° 0 mm 3 mps 746 mmHg 96%
    02:00 +17°C° 0 mm 2 mps 746 mmHg 97%
    03:00 +17°C° 0 mm 2 mps 746 mmHg 96%
    04:00 +17°C° 0 mm 2 mps 746 mmHg 96%
    05:00 +17°C° 0 mm 3 mps 746 mmHg 96%
    06:00 +19°C° 0 mm 3 mps 746 mmHg 92%
    07:00 +20°C° 0 mm 3 mps 746 mmHg 88%
    08:00 +21°C° 0 mm 3 mps 746 mmHg 84%
    09:00 +22°C° 0 mm 3 mps 746 mmHg 79%
    10:00 +25°C° 0 mm 3 mps 746 mmHg 73%
    11:00 +26°C° 0 mm 3 mps 746 mmHg 68%
    12:00 +26°C° 0 mm 3 mps 746 mmHg 66%
    13:00 +26°C° 0 mm 3 mps 746 mmHg 65%
    14:00 +27°C° 0 mm 2 mps 745 mmHg 63%
    15:00 +27°C° 0 mm 2 mps 745 mmHg 65%
    16:00 +26°C° 0 mm 2 mps 745 mmHg 67%
    17:00 +26°C° 0 mm 2 mps 745 mmHg 69%
    18:00 +25°C° 0.1 mm 2 mps 745 mmHg 76%
    19:00 +23°C° 0.1 mm 2 mps 745 mmHg 82%
    20:00 +20°C° 0.1 mm 2 mps 745 mmHg 88%
    21:00 +20°C° 0 mm 1 mps 745 mmHg 90%
    22:00 +20°C° 0 mm 1 mps 745 mmHg 91%
    23:00 +19°C° 0 mm 1 mps 745 mmHg 93%
    Mostrar más